1701999911,2011,04,01,00,99
1701999911,2011,04,01,01,99
1701999911,2011,04,01,02,99
1701999911,2011,04,01,03,99
1701999911,2011,04,01,04,99
1701999911,2011,04,01,05,99
1701999911,2011,04,01,06,99
1701999911,2011,04,01,07,99
1701999911,2011,04,01,08,99
1701999911,2011,04,01,09,99
1701999911,2011,04,01,10,99
1701999911,2011,04,01,11,99
1701999911,2011,04,01,12,99
1701999911,2011,04,01,13,99
1701999911,2011,04,01,14,99
1701999911,2011,04,01,15,99
1701999911,2011,04,01,16,99
1701999911,2011,04,01,17,99
1701999911,2011,04,01,18,99
1701999911,2011,04,01,19,99
1701999911,2011,04,01,20,99
1701999911,2011,04,01,21,99
1701999911,2011,04,01,22,99
1701999911,2011,04,01,23,99
1701999911,2011,04,02,00,99
1701999911,2011,04,02,01,99
1701999911,2011,04,02,02,99
1701999911,2011,04,02,03,99
1701999911,2011,04,02,04,99
1701999911,2011,04,02,05,99
1701999911,2011,04,02,06,99
1701999911,2011,04,02,07,99
1701999911,2011,04,02,08,99
1701999911,2011,04,02,09,99
1701999911,2011,04,02,10,99
1701999911,2011,04,02,11,99
1701999911,2011,04,02,12,99
1701999911,2011,04,02,13,99
1701999911,2011,04,02,14,99
1701999911,2011,04,02,15,99
1701999911,2011,04,02,16,99
1701999911,2011,04,02,17,99
1701999911,2011,04,02,18,99
1701999911,2011,04,02,19,99
1701999911,2011,04,02,20,99
1701999911,2011,04,02,21,99
1701999911,2011,04,02,22,99
1701999911,2011,04,02,23,99
1701999911,2011,04,03,00,99
1701999911,2011,04,03,01,99
1701999911,2011,04,03,02,99
1701999911,2011,04,03,03,99
1701999911,2011,04,03,04,99
1701999911,2011,04,03,05,99
1701999911,2011,04,03,06,99
1701999911,2011,04,03,07,99
1701999911,2011,04,03,08,99
1701999911,2011,04,03,09,99
1701999911,2011,04,03,10,99
1701999911,2011,04,03,11,99
1701999911,2011,04,03,12,99
1701999911,2011,04,03,13,99
1701999911,2011,04,03,14,99
1701999911,2011,04,03,15,99
1701999911,2011,04,03,16,99
1701999911,2011,04,03,17,99
1701999911,2011,04,03,18,99
1701999911,2011,04,03,19,99
1701999911,2011,04,03,20,99
1701999911,2011,04,03,21,99
1701999911,2011,04,03,22,99
1701999911,2011,04,03,23,99
1701999911,2011,04,04,00,99
1701999911,2011,04,04,01,99
1701999911,2011,04,04,02,99
1701999911,2011,04,04,03,99
1701999911,2011,04,04,04,99
1701999911,2011,04,04,05,99
1701999911,2011,04,04,06,99
1701999911,2011,04,04,07,99
1701999911,2011,04,04,08,99
1701999911,2011,04,04,09,99
1701999911,2011,04,04,10,99
1701999911,2011,04,04,11,99
1701999911,2011,04,04,12,99
1701999911,2011,04,04,13,99
1701999911,2011,04,04,14,99
1701999911,2011,04,04,15,99
1701999911,2011,04,04,16,99
1701999911,2011,04,04,17,99
1701999911,2011,04,04,18,99
1701999911,2011,04,04,19,99
1701999911,2011,04,04,20,99
1701999911,2011,04,04,21,99
1701999911,2011,04,04,22,99
1701999911,2011,04,04,23,99
1701999911,2011,04,05,00,99
1701999911,2011,04,05,01,99
1701999911,2011,04,05,02,99
1701999911,2011,04,05,03,99
1701999911,2011,04,05,04,99
1701999911,2011,04,05,05,99
1701999911,2011,04,05,06,99
1701999911,2011,04,05,07,99
1701999911,2011,04,05,08,99
1701999911,2011,04,05,09,99
1701999911,2011,04,05,10,99
1701999911,2011,04,05,11,99
1701999911,2011,04,05,12,99
1701999911,2011,04,05,13,99
1701999911,2011,04,05,14,99
1701999911,2011,04,05,15,99
1701999911,2011,04,05,16,99
1701999911,2011,04,05,17,99
1701999911,2011,04,05,18,99
1701999911,2011,04,05,19,99
1701999911,2011,04,05,20,99
1701999911,2011,04,05,21,99
1701999911,2011,04,05,22,99
1701999911,2011,04,05,23,99
1701999911,2011,04,06,00,99
1701999911,2011,04,06,01,99
1701999911,2011,04,06,02,99
1701999911,2011,04,06,03,99
1701999911,2011,04,06,04,99
1701999911,2011,04,06,05,99
1701999911,2011,04,06,06,99
1701999911,2011,04,06,07,99
1701999911,2011,04,06,08,99
1701999911,2011,04,06,09,99
1701999911,2011,04,06,10,99
1701999911,2011,04,06,11,99
1701999911,2011,04,06,12,99
1701999911,2011,04,06,13,99
1701999911,2011,04,06,14,99
1701999911,2011,04,06,15,99
1701999911,2011,04,06,16,99
1701999911,2011,04,06,17,99
1701999911,2011,04,06,18,99
1701999911,2011,04,06,19,99
1701999911,2011,04,06,20,99
1701999911,2011,04,06,21,99
1701999911,2011,04,06,22,99
1701999911,2011,04,06,23,99
1701999911,2011,04,07,00,99
1701999911,2011,04,07,01,99
1701999911,2011,04,07,02,99
1701999911,2011,04,07,03,99
1701999911,2011,04,07,04,99
1701999911,2011,04,07,05,99
1701999911,2011,04,07,06,99
1701999911,2011,04,07,07,99
1701999911,2011,04,07,08,99
1701999911,2011,04,07,09,99
1701999911,2011,04,07,10,99
1701999911,2011,04,07,11,99
1701999911,2011,04,07,12,99
1701999911,2011,04,07,13,99
1701999911,2011,04,07,14,99
1701999911,2011,04,07,15,99
1701999911,2011,04,07,16,99
1701999911,2011,04,07,17,99
1701999911,2011,04,07,18,99
1701999911,2011,04,07,19,99
1701999911,2011,04,07,20,99
1701999911,2011,04,07,21,99
1701999911,2011,04,07,22,99
1701999911,2011,04,07,23,99
1701999911,2011,04,08,00,99
1701999911,2011,04,08,01,99
1701999911,2011,04,08,02,99
1701999911,2011,04,08,03,99
1701999911,2011,04,08,04,99
1701999911,2011,04,08,05,99
1701999911,2011,04,08,06,99
1701999911,2011,04,08,07,99
1701999911,2011,04,08,08,99
1701999911,2011,04,08,09,99
1701999911,2011,04,08,10,99
1701999911,2011,04,08,11,99
1701999911,2011,04,08,12,99
1701999911,2011,04,08,13,99
1701999911,2011,04,08,14,99
1701999911,2011,04,08,15,99
1701999911,2011,04,08,16,99
1701999911,2011,04,08,17,99
1701999911,2011,04,08,18,99
1701999911,2011,04,08,19,99
1701999911,2011,04,08,20,99
1701999911,2011,04,08,21,99
1701999911,2011,04,08,22,99
1701999911,2011,04,08,23,99
1701999911,2011,04,09,00,99
1701999911,2011,04,09,01,99
1701999911,2011,04,09,02,99
1701999911,2011,04,09,03,99
1701999911,2011,04,09,04,99
1701999911,2011,04,09,05,99
1701999911,2011,04,09,06,99
1701999911,2011,04,09,07,99
1701999911,2011,04,09,08,99
1701999911,2011,04,09,09,99
1701999911,2011,04,09,10,99
1701999911,2011,04,09,11,99
1701999911,2011,04,09,12,99
1701999911,2011,04,09,13,99
1701999911,2011,04,09,14,99
1701999911,2011,04,09,15,99
1701999911,2011,04,09,16,99
1701999911,2011,04,09,17,99
1701999911,2011,04,09,18,99
1701999911,2011,04,09,19,99
1701999911,2011,04,09,20,99
1701999911,2011,04,09,21,99
1701999911,2011,04,09,22,99
1701999911,2011,04,09,23,99
1701999911,2011,04,10,00,99
1701999911,2011,04,10,01,99
1701999911,2011,04,10,02,99
1701999911,2011,04,10,03,99
1701999911,2011,04,10,04,99
1701999911,2011,04,10,05,99
1701999911,2011,04,10,06,99
1701999911,2011,04,10,07,99
1701999911,2011,04,10,08,99
1701999911,2011,04,10,09,99
1701999911,2011,04,10,10,99
1701999911,2011,04,10,11,99
1701999911,2011,04,10,12,99
1701999911,2011,04,10,13,99
1701999911,2011,04,10,14,99
1701999911,2011,04,10,15,99
1701999911,2011,04,10,16,99
1701999911,2011,04,10,17,99
1701999911,2011,04,10,18,99
1701999911,2011,04,10,19,99
1701999911,2011,04,10,20,99
1701999911,2011,04,10,21,99
1701999911,2011,04,10,22,99
1701999911,2011,04,10,23,99
1701999911,2011,04,11,00,99
1701999911,2011,04,11,01,99
1701999911,2011,04,11,02,99
1701999911,2011,04,11,03,99
1701999911,2011,04,11,04,99
1701999911,2011,04,11,05,99
1701999911,2011,04,11,06,99
1701999911,2011,04,11,07,99
1701999911,2011,04,11,08,99
1701999911,2011,04,11,09,99
1701999911,2011,04,11,10,99
1701999911,2011,04,11,11,99
1701999911,2011,04,11,12,99
1701999911,2011,04,11,13,99
1701999911,2011,04,11,14,99
1701999911,2011,04,11,15,99
1701999911,2011,04,11,16,99
1701999911,2011,04,11,17,99
1701999911,2011,04,11,18,99
1701999911,2011,04,11,19,99
1701999911,2011,04,11,20,99
1701999911,2011,04,11,21,99
1701999911,2011,04,11,22,99
1701999911,2011,04,11,23,99
1701999911,2011,04,12,00,99
1701999911,2011,04,12,01,99
1701999911,2011,04,12,02,99
1701999911,2011,04,12,03,99
1701999911,2011,04,12,04,99
1701999911,2011,04,12,05,99
1701999911,2011,04,12,06,99
1701999911,2011,04,12,07,99
1701999911,2011,04,12,08,99
1701999911,2011,04,12,09,99
1701999911,2011,04,12,10,99
1701999911,2011,04,12,11,99
1701999911,2011,04,12,12,99
1701999911,2011,04,12,13,99
1701999911,2011,04,12,14,99
1701999911,2011,04,12,15,99
1701999911,2011,04,12,16,99
1701999911,2011,04,12,17,99
1701999911,2011,04,12,18,99
1701999911,2011,04,12,19,99
1701999911,2011,04,12,20,99
1701999911,2011,04,12,21,99
1701999911,2011,04,12,22,99
1701999911,2011,04,12,23,99
1701999911,2011,04,13,00,99
1701999911,2011,04,13,01,99
1701999911,2011,04,13,02,99
1701999911,2011,04,13,03,99
1701999911,2011,04,13,04,99
1701999911,2011,04,13,05,99
1701999911,2011,04,13,06,99
1701999911,2011,04,13,07,99
1701999911,2011,04,13,08,99
1701999911,2011,04,13,09,99
1701999911,2011,04,13,10,99
1701999911,2011,04,13,11,99
1701999911,2011,04,13,12,99
1701999911,2011,04,13,13,99
1701999911,2011,04,13,14,99
1701999911,2011,04,13,15,99
1701999911,2011,04,13,16,99
1701999911,2011,04,13,17,99
1701999911,2011,04,13,18,99
1701999911,2011,04,13,19,99
1701999911,2011,04,13,20,99
1701999911,2011,04,13,21,99
1701999911,2011,04,13,22,99
1701999911,2011,04,13,23,99
1701999911,2011,04,14,00,99
1701999911,2011,04,14,01,99
1701999911,2011,04,14,02,99
1701999911,2011,04,14,03,99
1701999911,2011,04,14,04,99
1701999911,2011,04,14,05,99
1701999911,2011,04,14,06,99
1701999911,2011,04,14,07,99
1701999911,2011,04,14,08,99
1701999911,2011,04,14,09,99
1701999911,2011,04,14,10,99
1701999911,2011,04,14,11,99
1701999911,2011,04,14,12,99
1701999911,2011,04,14,13,99
1701999911,2011,04,14,14,99
1701999911,2011,04,14,15,99
1701999911,2011,04,14,16,99
1701999911,2011,04,14,17,99
1701999911,2011,04,14,18,99
1701999911,2011,04,14,19,99
1701999911,2011,04,14,20,99
1701999911,2011,04,14,21,99
1701999911,2011,04,14,22,99
1701999911,2011,04,14,23,99
1701999911,2011,04,15,00,99
1701999911,2011,04,15,01,99
1701999911,2011,04,15,02,99
1701999911,2011,04,15,03,99
1701999911,2011,04,15,04,99
1701999911,2011,04,15,05,99
1701999911,2011,04,15,06,99
1701999911,2011,04,15,07,99
1701999911,2011,04,15,08,99
1701999911,2011,04,15,09,99
1701999911,2011,04,15,10,99
1701999911,2011,04,15,11,99
1701999911,2011,04,15,12,99
1701999911,2011,04,15,13,99
1701999911,2011,04,15,14,99
1701999911,2011,04,15,15,99
1701999911,2011,04,15,16,99
1701999911,2011,04,15,17,99
1701999911,2011,04,15,18,99
1701999911,2011,04,15,19,99
1701999911,2011,04,15,20,99
1701999911,2011,04,15,21,99
1701999911,2011,04,15,22,99
1701999911,2011,04,15,23,99
1701999911,2011,04,16,00,99
1701999911,2011,04,16,01,99
1701999911,2011,04,16,02,99
1701999911,2011,04,16,03,99
1701999911,2011,04,16,04,99
1701999911,2011,04,16,05,99
1701999911,2011,04,16,06,99
1701999911,2011,04,16,07,99
1701999911,2011,04,16,08,99
1701999911,2011,04,16,09,99
1701999911,2011,04,16,10,99
1701999911,2011,04,16,11,99
1701999911,2011,04,16,12,99
1701999911,2011,04,16,13,99
1701999911,2011,04,16,14,99
1701999911,2011,04,16,15,99
1701999911,2011,04,16,16,99
1701999911,2011,04,16,17,99
1701999911,2011,04,16,18,99
1701999911,2011,04,16,19,99
1701999911,2011,04,16,20,99
1701999911,2011,04,16,21,99
1701999911,2011,04,16,22,99
1701999911,2011,04,16,23,99
1701999911,2011,04,17,00,99
1701999911,2011,04,17,01,99
1701999911,2011,04,17,02,99
1701999911,2011,04,17,03,99
1701999911,2011,04,17,04,99
1701999911,2011,04,17,05,99
1701999911,2011,04,17,06,99
1701999911,2011,04,17,07,99
1701999911,2011,04,17,08,99
1701999911,2011,04,17,09,99
1701999911,2011,04,17,10,99
1701999911,2011,04,17,11,99
1701999911,2011,04,17,12,99
1701999911,2011,04,17,13,99
1701999911,2011,04,17,14,99
1701999911,2011,04,17,15,99
1701999911,2011,04,17,16,99
1701999911,2011,04,17,17,99
1701999911,2011,04,17,18,99
1701999911,2011,04,17,19,99
1701999911,2011,04,17,20,99
1701999911,2011,04,17,21,99
1701999911,2011,04,17,22,99
1701999911,2011,04,17,23,99
1701999911,2011,04,18,00,99
1701999911,2011,04,18,01,99
1701999911,2011,04,18,02,99
1701999911,2011,04,18,03,99
1701999911,2011,04,18,04,99
1701999911,2011,04,18,05,99
1701999911,2011,04,18,06,99
1701999911,2011,04,18,07,99
1701999911,2011,04,18,08,99
1701999911,2011,04,18,09,99
1701999911,2011,04,18,10,99
1701999911,2011,04,18,11,99
1701999911,2011,04,18,12,99
1701999911,2011,04,18,13,99
1701999911,2011,04,18,14,99
1701999911,2011,04,18,15,99
1701999911,2011,04,18,16,99
1701999911,2011,04,18,17,99
1701999911,2011,04,18,18,99
1701999911,2011,04,18,19,99
1701999911,2011,04,18,20,99
1701999911,2011,04,18,21,99
1701999911,2011,04,18,22,99
1701999911,2011,04,18,23,99
1701999911,2011,04,19,00,99
1701999911,2011,04,19,01,99
1701999911,2011,04,19,02,99
1701999911,2011,04,19,03,99
1701999911,2011,04,19,04,99
1701999911,2011,04,19,05,99
1701999911,2011,04,19,06,99
1701999911,2011,04,19,07,99
1701999911,2011,04,19,08,99
1701999911,2011,04,19,09,99
1701999911,2011,04,19,10,99
1701999911,2011,04,19,11,99
1701999911,2011,04,19,12,99
1701999911,2011,04,19,13,99
1701999911,2011,04,19,14,99
1701999911,2011,04,19,15,99
1701999911,2011,04,19,16,99
1701999911,2011,04,19,17,99
1701999911,2011,04,19,18,99
1701999911,2011,04,19,19,99
1701999911,2011,04,19,20,99
1701999911,2011,04,19,21,99
1701999911,2011,04,19,22,99
1701999911,2011,04,19,23,99
1701999911,2011,04,20,00,99
1701999911,2011,04,20,01,99
1701999911,2011,04,20,02,99
1701999911,2011,04,20,03,99
1701999911,2011,04,20,04,99
1701999911,2011,04,20,05,99
1701999911,2011,04,20,06,99
1701999911,2011,04,20,07,99
1701999911,2011,04,20,08,99
1701999911,2011,04,20,09,99
1701999911,2011,04,20,10,99
1701999911,2011,04,20,11,99
1701999911,2011,04,20,12,99
1701999911,2011,04,20,13,99
1701999911,2011,04,20,14,99
1701999911,2011,04,20,15,99
1701999911,2011,04,20,16,99
1701999911,2011,04,20,17,99
1701999911,2011,04,20,18,99
1701999911,2011,04,20,19,99
1701999911,2011,04,20,20,99
1701999911,2011,04,20,21,99
1701999911,2011,04,20,22,99
1701999911,2011,04,20,23,99
1701999911,2011,04,21,00,99
1701999911,2011,04,21,01,99
1701999911,2011,04,21,02,99
1701999911,2011,04,21,03,99
1701999911,2011,04,21,04,99
1701999911,2011,04,21,05,99
1701999911,2011,04,21,06,99
1701999911,2011,04,21,07,99
1701999911,2011,04,21,08,99
1701999911,2011,04,21,09,99
1701999911,2011,04,21,10,99
1701999911,2011,04,21,11,99
1701999911,2011,04,21,12,99
1701999911,2011,04,21,13,99
1701999911,2011,04,21,14,99
1701999911,2011,04,21,15,99
1701999911,2011,04,21,16,99
1701999911,2011,04,21,17,99
1701999911,2011,04,21,18,99
1701999911,2011,04,21,19,99
1701999911,2011,04,21,20,99
1701999911,2011,04,21,21,99
1701999911,2011,04,21,22,99
1701999911,2011,04,21,23,99
1701999911,2011,04,22,00,99
1701999911,2011,04,22,01,99
1701999911,2011,04,22,02,99
1701999911,2011,04,22,03,99
1701999911,2011,04,22,04,99
1701999911,2011,04,22,05,99
1701999911,2011,04,22,06,99
1701999911,2011,04,22,07,99
1701999911,2011,04,22,08,99
1701999911,2011,04,22,09,99
1701999911,2011,04,22,10,99
1701999911,2011,04,22,11,99
1701999911,2011,04,22,12,99
1701999911,2011,04,22,13,99
1701999911,2011,04,22,14,99
1701999911,2011,04,22,15,99
1701999911,2011,04,22,16,99
1701999911,2011,04,22,17,99
1701999911,2011,04,22,18,99
1701999911,2011,04,22,19,99
1701999911,2011,04,22,20,99
1701999911,2011,04,22,21,99
1701999911,2011,04,22,22,99
1701999911,2011,04,22,23,99
1701999911,2011,04,23,00,99
1701999911,2011,04,23,01,99
1701999911,2011,04,23,02,99
1701999911,2011,04,23,03,99
1701999911,2011,04,23,04,99
1701999911,2011,04,23,05,99
1701999911,2011,04,23,06,99
1701999911,2011,04,23,07,99
1701999911,2011,04,23,08,99
1701999911,2011,04,23,09,99
1701999911,2011,04,23,10,99
1701999911,2011,04,23,11,99
1701999911,2011,04,23,12,99
1701999911,2011,04,23,13,99
1701999911,2011,04,23,14,99
1701999911,2011,04,23,15,99
1701999911,2011,04,23,16,99
1701999911,2011,04,23,17,99
1701999911,2011,04,23,18,99
1701999911,2011,04,23,19,99
1701999911,2011,04,23,20,99
1701999911,2011,04,23,21,99
1701999911,2011,04,23,22,99
1701999911,2011,04,23,23,99
1701999911,2011,04,24,00,99
1701999911,2011,04,24,01,99
1701999911,2011,04,24,02,99
1701999911,2011,04,24,03,99
1701999911,2011,04,24,04,99
1701999911,2011,04,24,05,99
1701999911,2011,04,24,06,99
1701999911,2011,04,24,07,99
1701999911,2011,04,24,08,99
1701999911,2011,04,24,09,99
1701999911,2011,04,24,10,99
1701999911,2011,04,24,11,99
1701999911,2011,04,24,12,0.037
1701999911,2011,04,24,13,0.037
1701999911,2011,04,24,14,0.038
1701999911,2011,04,24,15,0.039
1701999911,2011,04,24,16,0.039
1701999911,2011,04,24,17,0.034
1701999911,2011,04,24,18,0.032
1701999911,2011,04,24,19,0.028
1701999911,2011,04,24,20,0.028
1701999911,2011,04,24,21,0.031
1701999911,2011,04,24,22,0.029
1701999911,2011,04,24,23,0.029
1701999911,2011,04,25,00,0.027
1701999911,2011,04,25,01,0.024
1701999911,2011,04,25,02,0.024
1701999911,2011,04,25,03,0.026
1701999911,2011,04,25,04,0.02
1701999911,2011,04,25,05,0.015
1701999911,2011,04,25,06,0.013
1701999911,2011,04,25,07,0.013
1701999911,2011,04,25,08,99
1701999911,2011,04,25,09,0.014
1701999911,2011,04,25,10,0.018
1701999911,2011,04,25,11,0.021
1701999911,2011,04,25,12,0.029
1701999911,2011,04,25,13,0.034
1701999911,2011,04,25,14,0.035
1701999911,2011,04,25,15,0.033
1701999911,2011,04,25,16,0.038
1701999911,2011,04,25,17,0.039
1701999911,2011,04,25,18,0.039
1701999911,2011,04,25,19,0.04
1701999911,2011,04,25,20,0.041
1701999911,2011,04,25,21,0.041
1701999911,2011,04,25,22,0.04
1701999911,2011,04,25,23,0.038
1701999911,2011,04,26,00,0.038
1701999911,2011,04,26,01,0.041
1701999911,2011,04,26,02,0.042
1701999911,2011,04,26,03,0.048
1701999911,2011,04,26,04,0.049
1701999911,2011,04,26,05,0.051
1701999911,2011,04,26,06,0.051
1701999911,2011,04,26,07,0.051
1701999911,2011,04,26,08,0.05
1701999911,2011,04,26,09,0.048
1701999911,2011,04,26,10,0.046
1701999911,2011,04,26,11,0.046
1701999911,2011,04,26,12,0.044
1701999911,2011,04,26,13,0.045
1701999911,2011,04,26,14,0.046
1701999911,2011,04,26,15,0.043
1701999911,2011,04,26,16,0.041
1701999911,2011,04,26,17,0.04
1701999911,2011,04,26,18,0.04
1701999911,2011,04,26,19,0.037
1701999911,2011,04,26,20,0.034
1701999911,2011,04,26,21,0.033
1701999911,2011,04,26,22,0.032
1701999911,2011,04,26,23,0.029
1701999911,2011,04,27,00,0.025
1701999911,2011,04,27,01,0.024
1701999911,2011,04,27,02,0.028
1701999911,2011,04,27,03,0.032
1701999911,2011,04,27,04,0.034
1701999911,2011,04,27,05,0.033
1701999911,2011,04,27,06,0.032
1701999911,2011,04,27,07,0.033
1701999911,2011,04,27,08,0.035
1701999911,2011,04,27,09,0.038
1701999911,2011,04,27,10,0.039
1701999911,2011,04,27,11,0.038
1701999911,2011,04,27,12,0.039
1701999911,2011,04,27,13,0.042
1701999911,2011,04,27,14,0.042
1701999911,2011,04,27,15,0.04
1701999911,2011,04,27,16,0.039
1701999911,2011,04,27,17,0.038
1701999911,2011,04,27,18,0.038
1701999911,2011,04,27,19,0.035
1701999911,2011,04,27,20,0.032
1701999911,2011,04,27,21,0.032
1701999911,2011,04,27,22,0.034
1701999911,2011,04,27,23,0.032
1701999911,2011,04,28,00,0.033
1701999911,2011,04,28,01,0.033
1701999911,2011,04,28,02,0.033
1701999911,2011,04,28,03,0.03
1701999911,2011,04,28,04,0.031
1701999911,2011,04,28,05,0.03
1701999911,2011,04,28,06,0.032
1701999911,2011,04,28,07,0.039
1701999911,2011,04,28,08,0.04
1701999911,2011,04,28,09,0.04
1701999911,2011,04,28,10,0.039
1701999911,2011,04,28,11,0.041
1701999911,2011,04,28,12,0.042
1701999911,2011,04,28,13,0.042
1701999911,2011,04,28,14,0.045
1701999911,2011,04,28,15,0.046
1701999911,2011,04,28,16,0.043
1701999911,2011,04,28,17,0.04
1701999911,2011,04,28,18,0.037
1701999911,2011,04,28,19,0.033
1701999911,2011,04,28,20,0.032
1701999911,2011,04,28,21,0.024
1701999911,2011,04,28,22,0.022
1701999911,2011,04,28,23,0.025
1701999911,2011,04,29,00,0.022
1701999911,2011,04,29,01,0.025
1701999911,2011,04,29,02,0.027
1701999911,2011,04,29,03,0.026
1701999911,2011,04,29,04,0.028
1701999911,2011,04,29,05,0.032
1701999911,2011,04,29,06,0.033
1701999911,2011,04,29,07,0.035
1701999911,2011,04,29,08,0.034
1701999911,2011,04,29,09,0.036
1701999911,2011,04,29,10,0.037
1701999911,2011,04,29,11,0.04
1701999911,2011,04,29,12,0.042
1701999911,2011,04,29,13,0.046
1701999911,2011,04,29,14,0.048
1701999911,2011,04,29,15,0.049
1701999911,2011,04,29,16,0.048
1701999911,2011,04,29,17,0.045
1701999911,2011,04,29,18,0.037
1701999911,2011,04,29,19,0.034
1701999911,2011,04,29,20,0.031
1701999911,2011,04,29,21,0.034
1701999911,2011,04,29,22,0.032
1701999911,2011,04,29,23,0.03
1701999911,2011,04,30,00,0.03
1701999911,2011,04,30,01,0.029
1701999911,2011,04,30,02,0.03
1701999911,2011,04,30,03,0.03
1701999911,2011,04,30,04,0.03
1701999911,2011,04,30,05,0.031
1701999911,2011,04,30,06,0.032
1701999911,2011,04,30,07,0.034
1701999911,2011,04,30,08,0.038
1701999911,2011,04,30,09,0.043
1701999911,2011,04,30,10,0.048
1701999911,2011,04,30,11,0.052
1701999911,2011,04,30,12,0.054
1701999911,2011,04,30,13,0.053
1701999911,2011,04,30,14,0.053
1701999911,2011,04,30,15,0.053
1701999911,2011,04,30,16,0.053
1701999911,2011,04,30,17,0.051
1701999911,2011,04,30,18,0.046
1701999911,2011,04,30,19,0.042
1701999911,2011,04,30,20,0.046
1701999911,2011,04,30,21,0.044
1701999911,2011,04,30,22,0.042
1701999911,2011,04,30,23,0.039
1701999911,2011,05,01,00,0.035
1701999911,2011,05,01,01,0.034
1701999911,2011,05,01,02,0.03
1701999911,2011,05,01,03,0.026
1701999911,2011,05,01,04,0.026
1701999911,2011,05,01,05,0.021
1701999911,2011,05,01,06,0.025
1701999911,2011,05,01,07,0.034
1701999911,2011,05,01,08,0.039
1701999911,2011,05,01,09,0.042
1701999911,2011,05,01,10,0.047
1701999911,2011,05,01,11,0.049
1701999911,2011,05,01,12,0.048
1701999911,2011,05,01,13,0.048
1701999911,2011,05,01,14,0.047
1701999911,2011,05,01,15,0.044
1701999911,2011,05,01,16,0.042
1701999911,2011,05,01,17,0.041
1701999911,2011,05,01,18,0.04
1701999911,2011,05,01,19,0.042
1701999911,2011,05,01,20,0.045
1701999911,2011,05,01,21,0.043
1701999911,2011,05,01,22,0.042
1701999911,2011,05,01,23,0.041
1701999911,2011,05,02,00,0.042
1701999911,2011,05,02,01,0.039
1701999911,2011,05,02,02,0.037
1701999911,2011,05,02,03,0.036
1701999911,2011,05,02,04,0.033
1701999911,2011,05,02,05,0.031
1701999911,2011,05,02,06,0.03
1701999911,2011,05,02,07,0.028
1701999911,2011,05,02,08,0.028
1701999911,2011,05,02,09,0.027
1701999911,2011,05,02,10,0.028
1701999911,2011,05,02,11,0.034
1701999911,2011,05,02,12,0.04
1701999911,2011,05,02,13,0.039
1701999911,2011,05,02,14,0.038
1701999911,2011,05,02,15,0.038
1701999911,2011,05,02,16,0.036
1701999911,2011,05,02,17,0.029
1701999911,2011,05,02,18,0.03
1701999911,2011,05,02,19,0.033
1701999911,2011,05,02,20,0.031
1701999911,2011,05,02,21,0.029
1701999911,2011,05,02,22,0.03
1701999911,2011,05,02,23,0.03
1701999911,2011,05,03,00,0.031
1701999911,2011,05,03,01,0.03
1701999911,2011,05,03,02,0.025
1701999911,2011,05,03,03,0.03
1701999911,2011,05,03,04,0.031
1701999911,2011,05,03,05,0.029
1701999911,2011,05,03,06,0.029
1701999911,2011,05,03,07,0.032
1701999911,2011,05,03,08,0.038
1701999911,2011,05,03,09,0.041
1701999911,2011,05,03,10,0.049
1701999911,2011,05,03,11,0.051
1701999911,2011,05,03,12,0.051
1701999911,2011,05,03,13,0.051
1701999911,2011,05,03,14,0.048
1701999911,2011,05,03,15,0.042
1701999911,2011,05,03,16,0.037
1701999911,2011,05,03,17,0.033
1701999911,2011,05,03,18,0.028
1701999911,2011,05,03,19,0.028
1701999911,2011,05,03,20,0.029
1701999911,2011,05,03,21,0.03
1701999911,2011,05,03,22,0.031
1701999911,2011,05,03,23,0.029
1701999911,2011,05,04,00,0.027
1701999911,2011,05,04,01,0.025
1701999911,2011,05,04,02,0.02
1701999911,2011,05,04,03,0.017
1701999911,2011,05,04,04,0.015
1701999911,2011,05,04,05,0.013
1701999911,2011,05,04,06,0.016
1701999911,2011,05,04,07,0.021
1701999911,2011,05,04,08,0.027
1701999911,2011,05,04,09,0.03
1701999911,2011,05,04,10,0.032